Flag for Romania Weather past 2 weeks in Constanța, Romania

Now
83 °F

Sunny.


Feels Like: 86 °F
Forecast: 70 / 89 °F
Wind: 1 mph from Northeast

Location: Constanta

Current Time: Aug 3, 2015 at 6:35:58 PM

Latest Report: Aug 3, 2015 at 6:00 PM


Visibility: 6 mi

Pressure: 30.04 "Hg

Humidity: 60%

Dew point: 68 °F

Location of ConstanțaLocation

Historic Weather in Constanța — Graph

°F

Constanța temperature yesterday

Maximum temperature yesterday: 80 °F (at 2:00 PM)
Minimum temperature yesterday: 72 °F (at 5:00 AM)
Average temperature yesterday: 76 °F

Past Weeks' High & Low Weather Summary

 TemperatureHumidityPressure
High90 °F (Jul 26, 4:00 PM)98% (Aug 1, 5:00 AM)30.18 "Hg (Aug 1, 5:00 AM)
Low65 °F (Jul 25, 7:00 AM)42% (Jul 26, 4:00 PM)29.67 "Hg (Jul 26, 6:00 PM)
Average77 °F73%29.90 "Hg
* Reported Jul 19 5:00 PM — Aug 3 5:00 PM, Constanța, Weather by CustomWeather, © 2015

Note: Actual official high and low records may vary slightly from our data, if they occured in-between our weather recording intervals... More about our weather records

Advertising

Constanța weather history for previous 24 hours

 ConditionsComfort  
Time TempWeatherWind HumidityBarometerVisibility
5:00 PM
Mon, Aug 3
84 °FSunny.1 mph55%30.05 "Hg6 mi
4:00 PM84 °FSunny.1 mph51%30.06 "Hg6 mi
3:00 PM82 °FSunny.2 mph62%30.08 "Hg6 mi
2:00 PM81 °FSunny.2 mph67%30.08 "Hg6 mi
1:00 PM80 °FSunny.3 mph74%30.09 "Hg6 mi
12:00 PM78 °FSunny.3 mph75%30.10 "Hg6 mi
11:00 AM78 °FSunny.5 mph74%30.09 "Hg6 mi
10:00 AM76 °FSunny.3 mph72%30.09 "Hg6 mi
9:00 AM76 °FSunny.1 mph69%30.09 "Hg6 mi
8:00 AM72 °FSunny.2 mph75%30.09 "Hg6 mi
7:00 AM69 °FSunny.1 mph79%30.09 "Hg6 mi
5:00 AM72 °FClear.1 mph81%30.09 "Hg6 mi
4:00 AM72 °FClear.1 mph79%30.10 "Hg6 mi
3:00 AM74 °FClear.1 mph70%30.11 "Hg6 mi
2:00 AM74 °FClear.1 mph68%30.12 "Hg6 mi
1:00 AM74 °FClear.1 mph67%30.14 "Hg6 mi
11:00 PM
Sun, Aug 2
74 °FClear.1 mph64%30.14 "Hg6 mi
10:00 PM74 °FClear.1 mph67%30.14 "Hg6 mi
9:00 PM74 °FClear.1 mph66%30.13 "Hg6 mi
8:00 PM76 °FSunny.1 mph64%30.14 "Hg6 mi
7:00 PM78 °FSunny.1 mph60%30.14 "Hg6 mi
6:00 PM80 °FPassing clouds.1 mph56%30.15 "Hg6 mi
Weather by CustomWeather, © 2015

See weather overviewHow to use our weather pages